ATLAS 5 CENTAUR DEB, 43972

Orbit data source: Space-Track

ATLAS 5 CENTAUR DEB, 43972 is space debris in HEO originally from a launch on Wed, 17 Sep 2014 UTC launched from the Air Force Eastern Test Range (AFETR). Debris objects in space refer to the collection of defunct objects orbiting the Earth. Examples of debris include non-operational satellites, rocket bodies, and fragments generated from explosions, collisions, or faulty payload assembly.

Loading next visibility...
Identifier
43972, 2014-055AB
Orbit
HEO
Country
Flag of USUS
Related business
Flag of USUnited Launch Alliance/Lockheed Martin (US)
Manufacturer
Unknown
Mission
Spacecraft
Bus & Motor
Unknown
Mass
Unknown
Launch date (UTC)
2014-09-17 (11 years ago)
Launch vehicle
Unknown
Launch site
Air Force Eastern Test Range (AFETR)
Object type
Payload
Rocket body
Debris
Shape & HBR
Unknown
Radar Cross Section
Medium (>0.1 m² and <1 m²)

Expand to show TLE details & history
Last TLE update: 1 week ago

TLE from 1 week ago
0 ATLAS 5 CENTAUR DEB
1 43972U 14055AB  25253.49450212 -.00000001  00000-0  00000-0 0  9996
2 43972  19.6207 170.9132 4849742 116.3152 300.7285  1.85391354 47535
Epoch: 2025-09-10T11:52Z
TLE epoch observation values (Epoch: 2025-09-10T11:52:04.983Z)
Latitude
-0.00001°
Longitude
3.07998°
Altitude
20,931.508 km
Speed
3.867 km/s
True Right ascension
11h 23m 29s
True Declination
0° 00' 00"
Sunlit
Object was in daylight at epoch
Visualization orbit readout
Latitude
Unknown
Longitude
Unknown
Altitude
Unknown
Speed
Unknown
Apparent Right ascension
Unknown
Apparent Declination
Unknown
Sunlit
N/A
Visualization observer readout
Local Sidereal Time
08:06:30
Azimuth
Unknown
Elevation
Unknown
Doppler factor
Unknown
Orbital elements
Apogee altitude
35,189.789 km
Perigee altitude
8,038.648 km
Semi-major axis
27,992.356 km
Eccentricity
0.48497
Inclination
19.6207°
RAAN
170.9132°
Arg. of periapsis
116.3152°
True anomaly
243.62791°
Mean anomaly
300.7285°
Eccentric anomaly
272.97908°
Mean motion
0.46343 °/min
Orbital period
776.82 mins
BSTAR
0
Loading maneuver chart data...
Computing Atmospheric mass density...
Loading historical data...
Loading historical data...
Loading historical data...
Loading historical data...
Loading historical data...
Loading historical data...
Loading historical data...

Documentation

Showing up to 5 results
|